This is the latest recevied weather packets stored in our database for station/object SV9TNF-1. If no packets are shown the sender has not sent any weather packets the latest 10 day(s).
| Time | Temp. | Humidity | Pressure | Rain* | Wind** | Luminosity | Snow |
|---|---|---|---|---|---|---|---|
| 1777525484 | 18.33° C | 42% | 1003.7 hPa | 0 mm | 0 m/s | - | - |
| 1777525184 | 17.78° C | 44% | 1003.4 hPa | 0 mm | 0 m/s | - | - |
| 1777524884 | 17.78° C | 46% | 1003.4 hPa | 0 mm | 0 m/s | - | - |
| 1777524584 | 17.78° C | 46% | 1003.4 hPa | 0 mm | 0 m/s | - | - |
| 1777524284 | 17.78° C | 46% | 1003.4 hPa | 0 mm | 0 m/s | - | - |
| 1777523984 | 17.22° C | 46% | 1003.4 hPa | 0 mm | 0 m/s | - | - |
| 1777523683 | 17.22° C | 46% | 1003.1 hPa | 0 mm | 0 m/s | - | - |
| 1777523384 | 17.22° C | 44% | 1003.1 hPa | 0 mm | 0 m/s | - | - |
| 1777523083 | 16.67° C | 46% | 1003.1 hPa | 0 mm | 0 m/s | - | - |
| 1777522783 | 16.67° C | 48% | 1003.1 hPa | 0 mm | 0.45 m/s, 135° | - | - |
| 1777522483 | 16.67° C | 48% | 1003.1 hPa | 0 mm | 1.79 m/s, 126° | - | - |
| 1777522183 | 16.67° C | 45% | 1003.1 hPa | 0 mm | 0 m/s | - | - |
| 1777521883 | 16.11° C | 46% | 1003.1 hPa | 0 mm | 1.34 m/s, 124° | - | - |
| 1777521583 | 16.11° C | 47% | 1003.1 hPa | 0 mm | 0.89 m/s, 123° | - | - |
| 1777521283 | 16.11° C | 49% | 1003.1 hPa | 0 mm | 1.34 m/s, 126° | - | - |
| 1777520983 | 16.11° C | 49% | 1003.1 hPa | 0 mm | 0 m/s | - | - |
| 1777520682 | 15.56° C | 49% | 1003.1 hPa | 0 mm | 1.34 m/s, 124° | - | - |
| 1777520382 | 15.56° C | 50% | 1003.1 hPa | 0 mm | 0.45 m/s, 130° | - | - |
| 1777520082 | 15.56° C | 51% | 1003.1 hPa | 0 mm | 1.34 m/s, 133° | - | - |
| 1777519782 | 15.56° C | 51% | 1003.1 hPa | 0 mm | 1.34 m/s, 130° | - | - |
| 1777519482 | 15.56° C | 51% | 1003.1 hPa | 0 mm | 0.45 m/s, 123° | - | - |
| 1777519182 | 15.56° C | 51% | 1003.1 hPa | 0 mm | 0.45 m/s, 130° | - | - |
| 1777518882 | 15.56° C | 52% | 1003.1 hPa | 0 mm | 0.45 m/s, 117° | - | - |
| 1777518582 | 15.56° C | 51% | 1003.4 hPa | 0 mm | 0.45 m/s, 130° | - | - |
| 1777518282 | 15.56° C | 52% | 1003.4 hPa | 0 mm | 0.89 m/s, 128° | - | - |
* Rain latest hour (hover to see other rain measurements)
** Current wind speed in m/s (hover to see current wind gust speed)